******** Week 353 almanac for PRN-1 ******** ID: 1 Health: 0 Eccentricity: 0.001366615295 Time of Applicability(s): 319488 Orbital Inclination(rad): 0.9583628862 Rate of Right Ascen(r/s): -8.148910863e-09 SQRT(A) (m 1/2): 5153.581543 Right Ascen at Week(rad): -2.26987137 Argument of Perigee(rad): -0.01671687023 Mean Anom(rad): -1.059167296 Af0(s): 0.0002720764282 Af1(s/s): -3.637979e-12 week: 353 ******** Week 353 almanac for PRN-2 ******** ID: 2 Health: 0 Eccentricity: 0.01697683334 Time of Applicability(s): 319488 Orbital Inclination(rad): 0.9639055902 Rate of Right Ascen(r/s): -8.000333246e-09 SQRT(A) (m 1/2): 5153.563477 Right Ascen at Week(rad): -2.432641113 Argument of Perigee(rad): -0.8504226955 Mean Anom(rad): 0.3311499753 Af0(s): 1.281246338e-05 Af1(s/s): 7.275958e-12 week: 353 ******** Week 353 almanac for PRN-3 ******** ID: 3 Health: 0 Eccentricity: 0.006343364716 Time of Applicability(s): 319488 Orbital Inclination(rad): 0.9925538798 Rate of Right Ascen(r/s): -7.668890868e-09 SQRT(A) (m 1/2): 5153.61084 Right Ascen at Week(rad): -1.283868142 Argument of Perigee(rad): 1.211042629 Mean Anom(rad): 2.986286463 Af0(s): 0.0004733074707 Af1(s/s): -1.091394e-11 week: 353 ******** Week 353 almanac for PRN-4 ******** ID: 4 Health: 0 Eccentricity: 0.003730297089 Time of Applicability(s): 319488 Orbital Inclination(rad): 0.9705388587 Rate of Right Ascen(r/s): -7.520313251e-09 SQRT(A) (m 1/2): 5153.706543 Right Ascen at Week(rad): -0.2126694337 Argument of Perigee(rad): -2.912984951 Mean Anom(rad): -0.2371378504 Af0(s): 3.014697266e-05 Af1(s/s): 3.637979e-12 week: 353 ******** Week 353 almanac for PRN-5 ******** ID: 5 Health: 0 Eccentricity: 0.005373954773 Time of Applicability(s): 319488 Orbital Inclination(rad): 0.9791195637 Rate of Right Ascen(r/s): -7.828897533e-09 SQRT(A) (m 1/2): 5153.633789 Right Ascen at Week(rad): -1.3430234 Argument of Perigee(rad): 1.426210024 Mean Anom(rad): 0.3660753772 Af0(s): -0.0001793744873 Af1(s/s): 0 week: 353 ******** Week 353 almanac for PRN-6 ******** ID: 6 Health: 0 Eccentricity: 0.003856182098 Time of Applicability(s): 319488 Orbital Inclination(rad): 0.9873287578 Rate of Right Ascen(r/s): -7.863184676e-09 SQRT(A) (m 1/2): 5153.561523 Right Ascen at Week(rad): -2.320679241 Argument of Perigee(rad): -0.6259873745 Mean Anom(rad): -1.913888208 Af0(s): -0.000476322168 Af1(s/s): -3.637979e-12 week: 353 ******** Week 353 almanac for PRN-7 ******** ID: 7 Health: 0 Eccentricity: 0.02017116547 Time of Applicability(s): 319488 Orbital Inclination(rad): 0.9507648876 Rate of Right Ascen(r/s): -7.874613723e-09 SQRT(A) (m 1/2): 5153.578125 Right Ascen at Week(rad): 0.7959551423 Argument of Perigee(rad): -2.005408363 Mean Anom(rad): -2.825048454 Af0(s): -0.0001070217529 Af1(s/s): -3.637979e-12 week: 353 ******** Week 353 almanac for PRN-8 ******** ID: 8 Health: 0 Eccentricity: 0.01140832901 Time of Applicability(s): 319488 Orbital Inclination(rad): 0.9445031301 Rate of Right Ascen(r/s): -7.851755628e-09 SQRT(A) (m 1/2): 5153.620605 Right Ascen at Week(rad): 2.844528437 Argument of Perigee(rad): 0.4999009697 Mean Anom(rad): 0.02782100362 Af0(s): 0.0003986937134 Af1(s/s): -3.637979e-12 week: 353 ******** Week 353 almanac for PRN-9 ******** ID: 9 Health: 0 Eccentricity: 0.003375530243 Time of Applicability(s): 319488 Orbital Inclination(rad): 0.9646486122 Rate of Right Ascen(r/s): -7.588887536e-09 SQRT(A) (m 1/2): 5153.53418 Right Ascen at Week(rad): -0.2765524681 Argument of Perigee(rad): 2.070411548 Mean Anom(rad): 0.6010107518 Af0(s): 0.0006089688477 Af1(s/s): 0 week: 353 ******** Week 353 almanac for PRN-10 ******** ID: 10 Health: 0 Eccentricity: 0.01097679138 Time of Applicability(s): 319488 Orbital Inclination(rad): 0.9920984793 Rate of Right Ascen(r/s): -7.668890868e-09 SQRT(A) (m 1/2): 5153.608398 Right Ascen at Week(rad): -1.286378837 Argument of Perigee(rad): -2.267444565 Mean Anom(rad): 2.019953093 Af0(s): -0.0004604950073 Af1(s/s): -3.637979e-12 week: 353 ******** Week 353 almanac for PRN-11 ******** ID: 11 Health: 0 Eccentricity: 0.002236843109 Time of Applicability(s): 319488 Orbital Inclination(rad): 0.9641692432 Rate of Right Ascen(r/s): -8.080336578e-09 SQRT(A) (m 1/2): 5153.726074 Right Ascen at Week(rad): -2.300844974 Argument of Perigee(rad): -2.249304568 Mean Anom(rad): -0.9501400605 Af0(s): -0.0003745761353 Af1(s/s): 1.455192e-11 week: 353 ******** Week 353 almanac for PRN-12 ******** ID: 12 Health: 0 Eccentricity: 0.009066581726 Time of Applicability(s): 319488 Orbital Inclination(rad): 0.9588842 Rate of Right Ascen(r/s): -7.703178011e-09 SQRT(A) (m 1/2): 5153.511719 Right Ascen at Week(rad): 1.913910304 Argument of Perigee(rad): 1.533932852 Mean Anom(rad): 2.838750542 Af0(s): -0.0004793368652 Af1(s/s): 0 week: 353 ******** Week 353 almanac for PRN-13 ******** ID: 13 Health: 0 Eccentricity: 0.009895801544 Time of Applicability(s): 319488 Orbital Inclination(rad): 0.9762313655 Rate of Right Ascen(r/s): -7.497455156e-09 SQRT(A) (m 1/2): 5153.62793 Right Ascen at Week(rad): -0.1021715095 Argument of Perigee(rad): 1.002347464 Mean Anom(rad): -0.2477412679 Af0(s): 0.0005449065308 Af1(s/s): 0 week: 353 ******** Week 353 almanac for PRN-14 ******** ID: 14 Health: 0 Eccentricity: 0.006499290466 Time of Applicability(s): 319488 Orbital Inclination(rad): 0.9421901747 Rate of Right Ascen(r/s): -7.943188008e-09 SQRT(A) (m 1/2): 5153.586914 Right Ascen at Week(rad): 1.860016496 Argument of Perigee(rad): -2.762912495 Mean Anom(rad): 2.643265364 Af0(s): 0.0005758071777 Af1(s/s): 3.637979e-12 week: 353 ******** Week 353 almanac for PRN-15 ******** ID: 15 Health: 0 Eccentricity: 0.01659059525 Time of Applicability(s): 319488 Orbital Inclination(rad): 0.9424118828 Rate of Right Ascen(r/s): -7.851755628e-09 SQRT(A) (m 1/2): 5153.625977 Right Ascen at Week(rad): -0.4193857037 Argument of Perigee(rad): 1.49371192 Mean Anom(rad): -0.9822663969 Af0(s): 0.000297701355 Af1(s/s): 3.637979e-12 week: 353 ******** Week 353 almanac for PRN-16 ******** ID: 16 Health: 0 Eccentricity: 0.01504182816 Time of Applicability(s): 319488 Orbital Inclination(rad): 0.9580512963 Rate of Right Ascen(r/s): -7.726036106e-09 SQRT(A) (m 1/2): 5153.570312 Right Ascen at Week(rad): 1.930971346 Argument of Perigee(rad): 0.9210131508 Mean Anom(rad): 1.024494686 Af0(s): 0.0001484738403 Af1(s/s): 7.275958e-12 week: 353 ******** Week 353 almanac for PRN-17 ******** ID: 17 Health: 0 Eccentricity: 0.01283311844 Time of Applicability(s): 319488 Orbital Inclination(rad): 0.9602623858 Rate of Right Ascen(r/s): -7.703178011e-09 SQRT(A) (m 1/2): 5153.521973 Right Ascen at Week(rad): 2.948439531 Argument of Perigee(rad): -1.135492203 Mean Anom(rad): -0.08601789781 Af0(s): -2.562492676e-05 Af1(s/s): -1.091394e-11 week: 353 ******** Week 353 almanac for PRN-18 ******** ID: 18 Health: 0 Eccentricity: 0.005687236786 Time of Applicability(s): 319488 Orbital Inclination(rad): 0.9722885555 Rate of Right Ascen(r/s): -8.000333246e-09 SQRT(A) (m 1/2): 5153.599121 Right Ascen at Week(rad): -2.325050487 Argument of Perigee(rad): -2.856917504 Mean Anom(rad): -2.066779579 Af0(s): -0.0003564879517 Af1(s/s): 1.091394e-11 week: 353 ******** Week 353 almanac for PRN-19 ******** ID: 19 Health: 0 Eccentricity: 0.01096582413 Time of Applicability(s): 319488 Orbital Inclination(rad): 0.9594654349 Rate of Right Ascen(r/s): -7.703178011e-09 SQRT(A) (m 1/2): 5153.664062 Right Ascen at Week(rad): 2.992340369 Argument of Perigee(rad): 2.914794569 Mean Anom(rad): 1.779909442 Af0(s): 0.0005418918335 Af1(s/s): 3.637979e-12 week: 353 ******** Week 353 almanac for PRN-21 ******** ID: 21 Health: 0 Eccentricity: 0.0005483627319 Time of Applicability(s): 319488 Orbital Inclination(rad): 0.9619821221 Rate of Right Ascen(r/s): -7.966046103e-09 SQRT(A) (m 1/2): 5153.691406 Right Ascen at Week(rad): -1.276201609 Argument of Perigee(rad): -0.4881586764 Mean Anom(rad): 2.695917681 Af0(s): 0.0003007160522 Af1(s/s): 7.275958e-12 week: 353 ******** Week 353 almanac for PRN-22 ******** ID: 22 Health: 0 Eccentricity: 0.01223659515 Time of Applicability(s): 319488 Orbital Inclination(rad): 0.9574880378 Rate of Right Ascen(r/s): -7.760323248e-09 SQRT(A) (m 1/2): 5153.575195 Right Ascen at Week(rad): 1.934310077 Argument of Perigee(rad): -0.997487486 Mean Anom(rad): 0.567640303 Af0(s): -4.672780762e-05 Af1(s/s): 3.637979e-12 week: 353 ******** Week 353 almanac for PRN-23 ******** ID: 23 Health: 0 Eccentricity: 0.006000041962 Time of Applicability(s): 319488 Orbital Inclination(rad): 0.9870950654 Rate of Right Ascen(r/s): -7.748894201e-09 SQRT(A) (m 1/2): 5153.655762 Right Ascen at Week(rad): -1.318256501 Argument of Perigee(rad): -2.748622055 Mean Anom(rad): 3.119673133 Af0(s): 0.000474061145 Af1(s/s): 3.637979e-12 week: 353 ******** Week 353 almanac for PRN-24 ******** ID: 24 Health: 0 Eccentricity: 0.01782751083 Time of Applicability(s): 319488 Orbital Inclination(rad): 0.9348318606 Rate of Right Ascen(r/s): -8.011762293e-09 SQRT(A) (m 1/2): 5153.589355 Right Ascen at Week(rad): 0.6882982284 Argument of Perigee(rad): 1.129478369 Mean Anom(rad): -1.844855328 Af0(s): -0.0001288783081 Af1(s/s): 1.455192e-11 week: 353 ******** Week 353 almanac for PRN-25 ******** ID: 25 Health: 0 Eccentricity: 0.01293182373 Time of Applicability(s): 319488 Orbital Inclination(rad): 0.947163628 Rate of Right Ascen(r/s): -7.863184676e-09 SQRT(A) (m 1/2): 5153.685547 Right Ascen at Week(rad): 1.820587647 Argument of Perigee(rad): 1.149380421 Mean Anom(rad): 2.691850909 Af0(s): 0.0003557342773 Af1(s/s): -3.637979e-12 week: 353 ******** Week 353 almanac for PRN-26 ******** ID: 26 Health: 0 Eccentricity: 0.01096630096 Time of Applicability(s): 319488 Orbital Inclination(rad): 0.9279049786 Rate of Right Ascen(r/s): -8.103194673e-09 SQRT(A) (m 1/2): 5153.628418 Right Ascen at Week(rad): 1.746920616 Argument of Perigee(rad): 0.7003648449 Mean Anom(rad): 1.860561778 Af0(s): -0.0002456978271 Af1(s/s): -7.275958e-12 week: 353 ******** Week 353 almanac for PRN-27 ******** ID: 27 Health: 0 Eccentricity: 0.01415729523 Time of Applicability(s): 319488 Orbital Inclination(rad): 0.9536231252 Rate of Right Ascen(r/s): -7.760323248e-09 SQRT(A) (m 1/2): 5153.619629 Right Ascen at Week(rad): 2.876128216 Argument of Perigee(rad): 0.8654393039 Mean Anom(rad): 0.1172735054 Af0(s): -1.507348633e-05 Af1(s/s): -7.275958e-12 week: 353 ******** Week 353 almanac for PRN-28 ******** ID: 28 Health: 0 Eccentricity: 0.0004067420959 Time of Applicability(s): 319488 Orbital Inclination(rad): 0.9617424376 Rate of Right Ascen(r/s): -7.771752296e-09 SQRT(A) (m 1/2): 5153.704102 Right Ascen at Week(rad): 0.7696816018 Argument of Perigee(rad): 0.3890423952 Mean Anom(rad): -2.842513964 Af0(s): -0.0004831052368 Af1(s/s): 3.637979e-12 week: 353 ******** Week 353 almanac for PRN-29 ******** ID: 29 Health: 0 Eccentricity: 0.003245353699 Time of Applicability(s): 319488 Orbital Inclination(rad): 0.9629108995 Rate of Right Ascen(r/s): -7.703178011e-09 SQRT(A) (m 1/2): 5153.742676 Right Ascen at Week(rad): 2.965016336 Argument of Perigee(rad): 2.752462251 Mean Anom(rad): -0.006648623276 Af0(s): -0.0003105138184 Af1(s/s): 7.275958e-12 week: 353 ******** Week 353 almanac for PRN-30 ******** ID: 30 Health: 0 Eccentricity: 0.007867336273 Time of Applicability(s): 319488 Orbital Inclination(rad): 0.9360182989 Rate of Right Ascen(r/s): -8.046049436e-09 SQRT(A) (m 1/2): 5153.718262 Right Ascen at Week(rad): 0.7876384648 Argument of Perigee(rad): -2.349038785 Mean Anom(rad): -2.92898127 Af0(s): 6.933803711e-05 Af1(s/s): 1.091394e-11 week: 353 ******** Week 353 almanac for PRN-31 ******** ID: 31 Health: 0 Eccentricity: 0.01087713242 Time of Applicability(s): 319488 Orbital Inclination(rad): 0.9545219421 Rate of Right Ascen(r/s): -7.840326581e-09 SQRT(A) (m 1/2): 5153.700195 Right Ascen at Week(rad): 0.8199763977 Argument of Perigee(rad): 0.9308484544 Mean Anom(rad): 2.393848177 Af0(s): -0.0001364150513 Af1(s/s): 3.637979e-12 week: 353 ******** Week 353 almanac for PRN-32 ******** ID: 32 Health: 0 Eccentricity: 0.009178161621 Time of Applicability(s): 319488 Orbital Inclination(rad): 0.967728558 Rate of Right Ascen(r/s): -7.554600394e-09 SQRT(A) (m 1/2): 5153.668457 Right Ascen at Week(rad): -0.2597198752 Argument of Perigee(rad): -2.028115099 Mean Anom(rad): 0.7292973854 Af0(s): -0.0001288783081 Af1(s/s): 1.818989e-11 week: 353